Location: Cactus School
(34.5700°N, 118.0931°W)
Time: 20:54:18
(UTC-08:00)

Courier 1B Rocket - Visible Passes

Search period start: 16 November 2019 00:00
Search period end: 26 November 2019 00:00
Orbit: 920 x 1202 km, 28.2° (Epoch: 16 November)

Date Brightness Start Highest point End Pass type
(mag) Time Alt. Az. Time Alt. Az. Time Alt. Az.
16 Nov 5.9 18:26:07 10° W 18:33:31 52° S 18:37:34 28° SE visible
16 Nov 7.0 20:20:01 10° W 20:23:57 26° WSW 20:23:57 26° WSW visible
17 Nov 6.0 17:25:01 10° WSW 17:32:19 54° S 17:39:53 10° ESE visible
17 Nov 6.1 19:18:36 10° W 19:25:45 41° SSW 19:26:49 39° S visible
18 Nov 6.1 18:17:21 10° W 18:24:35 47° S 18:29:44 20° SE visible
18 Nov 7.0 20:11:33 10° WSW 20:16:07 25° SW 20:16:07 25° SW visible
19 Nov 6.1 17:16:14 10° W 17:23:24 52° S 17:30:54 10° ESE visible
19 Nov 6.5 19:10:00 10° W 19:16:43 34° SSW 19:19:08 28° SSE visible
20 Nov 6.4 18:08:41 10° W 18:15:36 40° SSW 18:22:15 12° SE visible
20 Nov 7.2 20:03:28 10° WSW 20:08:39 20° SSW 20:08:39 20° SSW visible
21 Nov 6.3 17:07:32 10° W 17:14:29 46° S 17:21:47 10° ESE visible
21 Nov 7.0 19:01:37 10° WSW 19:07:40 26° SSW 19:11:52 17° SSE visible
22 Nov 6.8 18:00:09 10° W 18:06:37 33° SSW 18:13:20 10° SE visible
22 Nov 7.6 19:56:14 10° WSW 19:59:35 13° SSW 20:01:40 12° SSW visible
23 Nov 6.6 16:58:55 10° W 17:05:31 39° SSW 17:12:30 10° SE visible
23 Nov 7.4 18:53:38 10° WSW 18:58:36 19° SSW 19:03:41 10° SSE visible
24 Nov 7.2 17:51:51 10° WSW 17:57:36 25° SSW 18:03:34 10° SSE visible
25 Nov 7.8 18:46:41 10° SW 18:49:32 12° SSW 18:52:26 10° S visible
